{"data":{"norad_id":63414,"epoch":"2026-05-25T01:22:41.630592Z","epoch_age_seconds":67176,"freshness":"FRESH","line1":"1 63414U 25065R   26145.05742628  .00009243  00000+0  34487-3 0  9994","line2":"2 63414  43.0024  36.2371 0001003 265.2971  94.7766 15.27590918 64513","mean_motion":15.27590918,"eccentricity":0.0001003,"inclination_deg":43.0024,"raan_deg":36.2371,"arg_perigee_deg":265.2971,"mean_anomaly_deg":94.7766,"bstar":0.00034487,"rev_number":6451,"period_min":94.26607497021,"perigee_km":482.32823012824,"apogee_km":483.70457750104,"semimajor_km":6861.1534038146,"source":"CELESTRAK","updated_at":"2026-05-25T13:38:19.971658Z"}}